Date String (YYYY-MM-DD hh:mm:ss) UTC,Instrument flags,Ambient pressure (hPa),Sample flow (lpm),Bypass flow (lpm),Sample temperature (°C),Ambient temperature (°C),ASC tube jacket temperature (°C),LED temperature (°C),Box temperature (°C),Sample RH (%),Span deviation,Mass concentration (μg/m³),Mass concentration (μg/m³),Mass concentration (μg/m³)
DateTimeUTC,F1_M11,P_M11,Q1_M11,Q2_M11,T1_M11,T2_M11,T3_M11,T4_M11,T5_M11,U1_M11,ZSPAN_M11,X0_M11,X2_M11,X1_M11
2021-11-13 05:00:00,,0829.7,5.00,0.00,26.6,25.7,00.0,35.6,28.3,14.2,0000.0,0002.05,0000.54,0000.38
2021-11-13 05:01:00,,0829.8,5.00,0.00,26.6,25.7,00.0,35.6,28.3,14.2,0000.0,0001.07,0000.52,0000.38
2021-11-13 05:02:00,,0829.7,5.00,0.00,26.6,25.7,00.0,35.6,28.4,14.3,0000.0,0001.04,0000.51,0000.38
2021-11-13 05:03:00,,0829.6,5.01,0.00,26.6,25.7,00.0,35.6,28.3,14.3,0000.0,0001.02,0000.50,0000.37
2021-11-13 05:04:00,,0829.6,5.00,0.00,26.6,25.6,00.0,35.6,28.3,14.3,0000.0,0001.03,0000.50,0000.37
2021-11-13 05:05:00,,0829.5,5.00,0.00,26.5,25.6,00.0,35.6,28.3,14.2,0000.0,0000.97,0000.48,0000.36
2021-11-13 05:06:00,,0829.5,4.99,0.00,26.5,25.6,00.0,35.6,28.3,14.3,0000.0,0000.97,0000.48,0000.37
2021-11-13 05:07:00,,0829.6,4.99,0.00,26.5,25.6,00.0,35.6,28.2,14.3,0000.0,0000.97,0000.49,0000.37
2021-11-13 05:08:00,,0829.6,5.00,0.00,26.5,25.6,00.0,35.6,28.3,14.2,0000.0,0000.92,0000.48,0000.36
2021-11-13 05:09:00,,0829.6,5.01,0.00,26.5,25.7,00.0,35.6,28.3,14.2,0000.0,0000.82,0000.49,0000.36
2021-11-13 05:10:00,,0829.6,4.99,0.00,26.5,25.7,00.0,35.6,28.3,14.2,0000.0,0000.70,0000.49,0000.37
2021-11-13 05:11:00,,0829.6,5.00,0.00,26.5,25.7,00.0,35.6,28.3,14.2,0000.0,0000.72,0000.49,0000.37
2021-11-13 05:12:00,,0829.6,5.00,0.00,26.5,25.7,00.0,35.6,28.3,14.0,0000.0,0000.73,0000.50,0000.36
2021-11-13 05:13:00,,0829.5,5.01,0.00,26.5,25.7,00.0,35.6,28.3,14.0,0000.0,0000.90,0000.52,0000.36
2021-11-13 05:14:00,,0829.5,5.00,0.00,26.5,25.7,00.0,35.6,28.3,14.1,0000.0,0001.05,0000.55,0000.37
2021-11-13 05:15:00,,0829.5,5.00,0.00,26.5,25.7,00.0,35.6,28.3,14.1,0000.0,0001.08,0000.57,0000.37
2021-11-13 05:16:00,,0829.5,5.00,0.00,26.5,25.7,00.0,35.6,28.3,14.1,0000.0,0001.04,0000.56,0000.37
2021-11-13 05:17:00,,0829.5,5.00,0.00,26.5,25.7,00.0,35.6,28.3,14.1,0000.0,0001.05,0000.56,0000.37
2021-11-13 05:18:00,,0829.5,5.00,0.00,26.5,25.7,00.0,35.6,28.3,13.9,0000.0,0001.11,0000.57,0000.38
2021-11-13 05:19:00,,0829.5,5.01,0.00,26.5,25.6,00.0,35.6,28.3,14.1,0000.0,0001.17,0000.59,0000.38
2021-11-13 05:20:00,,0829.5,4.99,0.00,26.5,25.6,00.0,35.6,28.3,14.1,0000.0,0001.19,0000.58,0000.38
2021-11-13 05:21:00,,0829.5,5.00,0.00,26.5,25.6,00.0,35.6,28.3,14.1,0000.0,0001.26,0000.61,0000.38
2021-11-13 05:22:00,,0829.4,5.01,0.00,26.5,25.7,00.0,35.6,28.3,14.0,0000.0,0001.28,0000.61,0000.39
2021-11-13 05:23:00,,0829.3,4.99,0.00,26.5,25.7,00.0,35.6,28.3,13.5,0000.0,0001.30,0000.62,0000.40
2021-11-13 05:24:00,,0829.4,5.00,0.00,26.5,25.7,00.0,35.6,28.3,13.3,0000.0,0001.15,0000.61,0000.40
2021-11-13 05:25:00,,0829.5,5.00,0.00,26.5,25.7,00.0,35.6,28.3,13.4,0000.0,0001.03,0000.59,0000.40
2021-11-13 05:26:00,,0829.5,5.00,0.00,26.5,25.7,00.0,35.6,28.3,13.3,0000.0,0000.98,0000.56,0000.40
2021-11-13 05:27:00,,0829.4,5.01,0.00,26.5,25.7,00.0,35.6,28.3,13.1,0000.0,0001.15,0000.63,0000.43
2021-11-13 05:28:00,,0829.3,4.99,0.00,26.5,25.6,00.0,35.6,28.3,12.6,0000.0,0001.42,0000.75,0000.50
2021-11-13 05:29:00,,0829.3,5.00,0.00,26.5,25.6,00.0,35.6,28.3,11.8,0000.0,0003.92,0000.96,0000.63
2021-11-13 05:30:00,,0829.3,5.00,0.00,26.5,25.6,00.0,35.5,28.3,11.7,0000.0,0006.27,0001.27,0000.77
2021-11-13 05:31:00,,0829.2,5.00,0.00,26.5,25.6,00.0,35.5,28.3,12.1,0000.0,0007.61,0001.55,0000.90
2021-11-13 05:32:00,,0829.3,5.00,0.00,26.5,25.6,00.0,35.5,28.2,12.6,0000.0,0008.59,0001.73,0000.98
2021-11-13 05:33:00,,0829.3,5.00,0.00,26.5,25.6,00.0,35.5,28.3,12.4,0000.0,0009.21,0002.00,0001.08
2021-11-13 05:34:00,,0829.3,4.99,0.00,26.5,25.6,00.0,35.5,28.3,12.5,0000.0,0009.50,0002.24,0001.17
2021-11-13 05:35:00,,0829.2,4.99,0.00,26.5,25.6,00.0,35.5,28.3,12.3,0000.0,0009.85,0002.47,0001.27
2021-11-13 05:36:00,,0829.3,5.00,0.00,26.5,25.6,00.0,35.5,28.3,12.2,0000.0,0010.41,0002.74,0001.38
2021-11-13 05:37:00,,0829.2,4.99,0.00,26.5,25.7,00.0,35.5,28.3,12.5,0000.0,0011.26,0002.92,0001.47
2021-11-13 05:38:00,,0829.2,5.00,0.00,26.5,25.7,00.0,35.5,28.3,12.7,0000.0,0011.38,0002.98,0001.50
2021-11-13 05:39:00,,0829.2,5.00,0.00,26.5,25.7,00.0,35.5,28.3,12.9,0000.0,0011.38,0002.99,0001.49
2021-11-13 05:40:00,,0829.3,5.00,0.00,26.5,25.7,00.0,35.5,28.3,12.7,0000.0,0010.13,0002.89,0001.42
2021-11-13 05:41:00,,0829.2,5.00,0.00,26.5,25.7,00.0,35.5,28.3,12.6,0000.0,0009.00,0002.73,0001.36
2021-11-13 05:42:00,,0829.2,5.01,0.00,26.5,25.7,00.0,35.5,28.3,13.3,0000.0,0008.21,0002.53,0001.28
2021-11-13 05:43:00,,0829.2,5.00,0.00,26.5,25.7,00.0,35.5,28.3,13.4,0000.0,0007.06,0002.38,0001.21
2021-11-13 05:44:00,,0829.1,4.99,0.00,26.5,25.7,00.0,35.5,28.3,13.2,0000.0,0006.25,0002.20,0001.15
2021-11-13 05:45:00,,0829.2,5.00,0.00,26.5,25.7,00.0,35.5,28.3,13.1,0000.0,0005.75,0002.01,0001.07
2021-11-13 05:46:00,,0829.2,5.00,0.00,26.5,25.7,00.0,35.5,28.3,13.2,0000.0,0005.33,0001.84,0001.00
2021-11-13 05:47:00,,0829.3,5.01,0.00,26.6,25.7,00.0,35.5,28.3,13.1,0000.0,0004.58,0001.67,0000.93
2021-11-13 05:48:00,,0829.2,5.00,0.00,26.5,25.7,00.0,35.5,28.3,13.1,0000.0,0005.30,0001.55,0000.88
2021-11-13 05:49:00,,0829.2,4.99,0.00,26.5,25.7,00.0,35.5,28.3,13.3,0000.0,0007.35,0001.53,0000.88
2021-11-13 05:50:00,,0829.2,5.00,0.00,26.5,25.7,00.0,35.5,28.3,13.6,0000.0,0007.36,0001.52,0000.88
2021-11-13 05:51:00,,0829.2,5.01,0.00,26.5,25.6,00.0,35.5,28.3,13.8,0000.0,0007.39,0001.50,0000.87
2021-11-13 05:52:00,,0829.3,4.99,0.00,26.4,25.6,00.0,35.5,28.2,13.6,0000.0,0007.30,0001.42,0000.83
2021-11-13 05:53:00,,0829.2,5.01,0.00,26.4,25.5,00.0,35.5,28.2,13.6,0000.0,0007.01,0001.28,0000.78
2021-11-13 05:54:00,,0829.2,5.01,0.00,26.4,25.5,00.0,35.5,28.2,13.6,0000.0,0006.97,0001.25,0000.76
2021-11-13 05:55:00,,0829.2,4.99,0.00,26.4,25.5,00.0,35.5,28.2,13.7,0000.0,0006.91,0001.21,0000.75
2021-11-13 05:56:00,,0829.3,4.99,0.00,26.4,25.6,00.0,35.5,28.2,13.7,0000.0,0006.85,0001.17,0000.73
2021-11-13 05:57:00,,0829.3,5.00,0.00,26.4,25.6,00.0,35.5,28.2,13.8,0000.0,0007.71,0001.15,0000.74
2021-11-13 05:58:00,,0829.3,4.99,0.00,26.4,25.6,00.0,35.5,28.2,13.8,0000.0,0007.70,0001.09,0000.73
2021-11-13 05:59:00,,0829.3,5.02,0.00,26.4,25.6,00.0,35.5,28.2,13.7,0000.0,0007.59,0001.04,0000.71
